Theta_e
305 305 305 304 304 304 303 303 303 303 304 304 304 303 304 304 303 302 303 305 301 299 300 300 303 303 304 304 300 305 303 306 307 303 303 304 302 306 304 307 306 304 303 301 303 301 300 323 323 317 326 332 333 333
304 305 304 304 304 304 303 302 303 303 304 303 303 303 303 303 304 303 302 306 303 298 300 302 303 304 304 305 305 306 305 309 311 306 309 309 305 308 306 301 316 306 310 307 307 306 324 327 329 333 332 332 334 334
305 305 304 305 305 305 303 303 303 303 304 303 303 303 303 303 304 303 302 304 303 300 302 302 303 307 307 305 307 302 307 313 313 314 311 310 306 311 304 305 311 316 320 312 314 318 322 326 331 332 334 333 337 335
304 304 304 304 304 303 303 303 303 302 303 303 303 303 303 303 304 304 301 306 303 301 297 302 307 306 308 308 306 305 307 315 314 312 311 309 305 311 308 310 310 315 319 315 315 321 324 327 330 331 331 334 333 335
304 304 304 304 304 304 304 304 303 302 302 303 302 302 303 303 304 304 305 307 306 300 298 302 307 308 308 308 306 306 305 305 306 305 307 306 312 310 311 311 309 317 315 313 311 322 323 326 330 330 331 331 332 331
304 303 303 304 304 304 303 303 302 302 302 302 303 303 303 303 304 305 302 307 308 306 300 299 306 306 309 310 309 307 307 305 305 305 307 310 311 309 306 305 314 315 316 318 317 324 325 328 329 331 329 330 332 332
303 304 303 304 304 303 303 302 302 302 302 302 303 303 303 303 303 303 301 304 303 307 301 300 302 309 311 309 308 307 307 307 306 306 304 305 308 308 305 303 312 313 315 316 318 321 321 323 324 329 331 329 327 332
303 304 304 304 304 303 302 302 302 302 302 303 303 303 303 303 304 304 309 303 305 303 304 300 302 304 311 306 305 310 306 306 307 305 308 304 306 306 300 306 310 313 315 315 316 317 321 322 325 327 330 329 328 328
303 304 304 304 304 303 302 301 302 302 302 302 303 305 307 305 303 303 307 305 309 303 299 302 300 297 310 310 312 310 309 301 310 303 304 304 301 299 304 307 311 313 313 314 316 316 317 320 320 322 325 326 324 326
304 304 304 304 303 303 302 301 302 302 302 301 305 303 300 305 305 307 305 301 302 302 303 300 305 301 306 307 305 307 309 304 301 304 310 302 300 306 310 312 315 314 315 316 314 311 315 315 317 318 321 325 326 325
304 304 304 304 303 303 302 301 301 302 300 304 301 301 306 304 307 304 297 297 300 296 302 305 305 302 310 304 305 309 306 307 298 303 301 300 299 305 310 312 314 315 316 316 317 318 319 319 317 316 316 320 326 328
305 304 304 304 304 303 301 301 301 302 303 302 302 304 307 303 301 295 294 297 297 298 303 303 306 307 309 312 306 308 302 305 295 307 301 297 306 308 309 311 312 314 314 315 317 318 318 319 320 318 317 319 325 327
305 304 304 303 303 302 301 301 300 301 302 304 301 300 300 299 288 290 289 295 298 305 306 307 304 308 310 310 305 304 298 298 308 300 299 300 302 306 309 311 312 314 315 315 315 317 319 319 320 320 318 321 325 328
304 304 304 304 303 302 301 301 301 302 303 299 295 287 293 292 295 296 296 299 300 305 304 304 305 305 308 304 307 298 303 304 296 294 295 297 303 304 308 311 312 312 314 314 314 316 318 319 321 322 320 321 325 326
304 304 304 303 302 301 301 301 301 304 303 297 296 288 292 300 302 303 303 305 306 307 305 304 304 304 304 300 304 301 297 294 296 293 296 302 304 307 307 309 310 311 312 312 313 314 317 319 321 321 323 325 326 327
304 304 302 303 302 301 301 301 302 304 303 299 297 294 299 298 297 299 300 302 307 306 308 305 301 298 296 299 296 295 294 294 294 299 303 305 307 306 307 306 306 309 310 311 313 314 317 320 321 322 325 327 328 326
303 302 302 302 302 302 301 302 302 297 298 296 296 301 300 301 301 303 307 305 308 304 298 302 294 294 302 296 294 300 297 301 303 305 306 308 306 307 305 306 308 309 309 313 314 314 317 317 317 317 316 318 321 321
302 303 302 303 303 301 302 303 300 298 294 298 296 297 302 304 304 306 307 308 305 304 303 298 303 296 294 291 295 305 305 306 306 305 305 304 306 306 306 306 309 310 311 313 313 314 314 313 312 313 315 316 315 315
302 303 302 302 302 303 299 299 301 295 298 299 299 301 302 303 306 307 306 307 308 307 305 302 298 296 296 301 302 303 304 304 302 301 302 305 308 308 308 309 310 311 312 312 314 316 316 315 314 314 314 315 313 314
304 304 303 301 301 303 296 298 304 297 297 300 303 302 303 303 304 305 305 304 301 301 298 294 298 302 303 304 304 303 304 303 301 299 302 306 308 308 307 309 309 311 311 312 312 308 313 314 315 314 315 311 309 309
299 301 301 302 303 303 300 299 298 301 301 300 303 301 300 304 300 300 299 302 300 298 296 301 303 304 307 306 306 304 302 302 302 304 304 304 307 308 307 309 310 310 309 309 308 307 308 309 311 312 311 310 310 310
302 300 304 303 300 298 299 302 299 302 299 300 300 300 297 294 294 295 296 294 295 298 302 303 304 303 301 300 302 304 307 307 307 306 304 304 306 305 306 307 308 307 308 308 309 308 309 310 312 312 313 313 312 311
301 302 303 300 294 294 293 304 296 297 293 293 297 292 293 293 294 297 293 294 295 299 300 299 299 301 300 303 307 307 308 307 306 306 306 306 307 309 310 310 311 309 308 309 311 311 310 305 307 310 311 311 309 305
297 299 294 294 295 291 298 294 295 293 292 291 290 289 291 292 295 291 288 291 296 299 303 304 306 305 306 306 305 306 307 308 307 307 308 307 306 307 310 311 310 311 312 312 312 313 311 310 308 313 310 308 308 307
291 291 294 287 296 292 289 289 289 289 289 291 289 290 291 293 288 287 287 293 297 299 304 306 306 305 303 304 305 306 309 309 308 307 311 311 312 312 309 307 312 316 314 312 312 312 311 309 306 305 306 308 307 306
287 293 290 292 292 289 290 287 287 290 292 290 291 294 294 292 288 285 291 295 297 300 305 305 304 304 305 307 306 306 308 313 311 306 309 309 310 311 309 306 305 307 313 312 311 310 310 311 309 307 305 304 298 306
287 290 293 296 294 292 290 291 293 292 292 291 293 292 293 288 286 292 298 301 300 306 308 309 309 308 309 310 307 311 315 313 313 313 314 314 313 313 310 307 306 307 309 308 308 307 306 306 306 306 306 307 308 308
291 291 288 290 291 293 292 293 293 293 295 299 296 291 290 288 289 298 300 303 306 308 308 310 312 309 307 307 311 312 314 314 314 314 313 312 312 311 311 310 310 296 309 310 309 310 309 309 308 308 307 308 308 310
291 293 293 292 294 295 296 295 295 298 301 299 295 294 295 299 302 303 304 306 309 309 309 310 311 310 309 309 311 311 312 310 308 306 304 303 304 306 310 310 310 310 310 309 293 301 308 309 309 309 309 309 309 310
296 298 296 296 295 294 299 300 299 304 305 304 303 303 303 304 307 311 310 309 307 306 307 308 309 306 305 305 305 307 312 311 309 307 304 304 306 309 310 310 310 310 310 310 309 308 295 306 303 309 308 308 308 307
305 302 299 298 297 300 303 305 305 305 304 303 303 301 301 304 307 309 311 311 310 309 307 306 306 307 307 306 305 305 304 309 310 310 310 310 310 311 311 311 312 313 314 314 313 312 310 310 311 308 307 306 304 304
301 299 299 297 299 304 306 303 302 301 302 301 301 303 303 302 300 304 308 309 307 307 300 306 306 306 309 309 310 310 301 310 310 311 311 311 312 312 313 313 313 313 313 312 312 310 309 308 309 307 305 303 303 301
302 301 301 300 300 300 302 301 300 300 301 301 302 303 303 302 300 306 311 313 310 308 308 308 309 310 312 311 310 309 306 310 300 291 293 293 293 300 312 313 313 313 311 312 310 309 307 305 306 304 303 301 300 299
Wind_Speed
8 9 7 8 8 7 8 9 8 11 11 12 12 12 13 13 13 9 3 5 6 4 3 3 3 5 4 6 7 6 6 8 6 9 9 6 8 6 9 4 5 12 10 12 14 15 17 4 5 8 7 5 7 5
9 8 8 9 10 8 6 8 8 10 10 10 11 12 11 11 11 11 2 2 4 6 6 4 8 9 8 7 6 4 6 2 5 6 3 5 5 3 9 9 5 8 5 5 5 7 5 3 5 6 5 6 7 6
9 9 9 8 8 6 6 7 8 10 8 7 9 12 11 10 9 8 5 4 4 4 5 5 4 4 8 13 9 6 4 4 3 5 5 3 6 4 7 11 2 4 1 6 4 5 1 2 2 3 6 6 7 4
9 9 7 6 6 6 7 8 8 9 10 8 9 11 11 10 10 8 3 3 4 4 6 6 3 4 1 6 10 12 5 3 5 4 3 4 5 1 3 6 6 7 1 3 7 2 5 5 6 6 6 5 2 3
11 9 8 8 7 9 10 8 8 8 10 10 10 11 11 11 11 7 4 3 3 6 6 2 1 3 4 5 8 9 9 7 4 4 4 2 2 5 5 4 8 2 5 5 2 8 7 7 6 6 5 5 4 7
11 10 9 9 9 8 8 7 7 8 9 11 11 11 11 11 11 6 5 4 3 3 5 3 4 4 3 4 7 7 6 6 5 4 2 2 1 5 5 7 7 5 4 8 7 10 6 6 4 4 3 2 4 7
12 11 11 10 9 8 8 8 7 8 9 11 12 11 11 10 6 4 7 5 1 3 4 4 6 5 3 6 5 5 6 4 5 4 5 6 5 4 6 10 6 5 5 5 8 8 0 4 3 3 2 4 3 9
15 14 13 12 10 8 8 8 8 8 10 12 13 13 11 8 8 5 2 7 5 5 4 4 2 7 4 5 5 4 5 5 6 6 3 6 5 5 7 8 6 6 9 7 3 6 7 5 3 0 1 5 6 8
16 16 15 13 11 9 8 7 8 9 11 13 14 3 4 5 2 3 4 6 4 5 4 3 3 3 3 2 1 4 3 6 2 6 8 5 6 7 6 10 2 3 5 8 9 8 8 7 4 3 1 3 4 6
17 15 15 13 11 9 8 7 8 9 12 10 5 4 2 3 2 6 5 2 4 4 3 4 0 3 4 3 4 3 4 4 3 5 1 6 10 7 6 2 4 5 5 5 8 8 6 6 2 4 5 3 7 6
18 17 15 14 12 10 7 6 6 10 8 4 3 1 4 1 4 2 2 4 3 4 5 3 2 2 2 3 0 1 2 2 4 4 5 4 5 8 5 5 4 6 6 8 8 8 8 9 7 7 3 5 3 9
19 16 15 14 12 10 7 4 5 5 3 4 4 2 3 5 3 3 3 2 5 1 5 2 2 3 1 2 3 2 3 2 5 4 4 5 6 5 3 3 5 6 6 8 9 10 10 10 8 7 6 6 8 5
19 16 14 13 13 10 7 4 1 3 5 3 3 3 3 3 1 5 6 4 3 0 2 2 3 2 3 3 4 3 5 5 2 4 3 5 5 6 6 7 8 10 9 9 10 10 10 11 11 10 8 6 6 9
17 16 14 14 12 9 7 4 2 4 5 3 3 1 5 4 5 0 3 1 2 2 3 3 2 2 1 3 2 4 3 3 5 5 2 2 7 9 11 10 11 12 12 11 11 11 10 9 9 9 9 6 7 8
18 16 14 13 12 10 7 4 3 4 3 3 3 4 6 1 1 1 2 2 3 2 4 3 3 3 2 3 3 3 4 5 2 3 0 3 8 11 12 13 14 13 12 10 11 11 10 9 8 7 6 6 7 8
18 14 9 14 12 9 7 6 4 2 2 3 3 3 3 4 4 1 3 2 1 3 2 3 2 3 3 2 3 5 4 2 3 1 4 8 11 11 11 10 13 13 11 11 10 9 10 9 3 4 5 5 6 8
16 4 15 14 12 9 6 4 4 4 3 4 4 2 4 2 1 2 1 3 3 5 2 3 3 5 2 4 3 3 4 3 4 6 7 10 11 11 9 11 12 9 9 8 7 5 4 8 8 9 10 10 9 8
3 11 16 15 12 7 5 3 3 4 4 4 2 2 0 1 1 2 2 3 5 3 3 3 3 4 4 3 4 1 3 6 8 10 10 11 14 10 9 9 7 5 5 3 6 7 8 10 10 8 11 12 12 12
8 12 15 15 3 3 3 5 4 3 1 3 2 1 1 1 1 2 3 1 2 4 4 4 5 4 5 3 6 8 8 8 9 8 8 10 7 3 3 3 3 5 6 7 9 7 10 12 9 8 9 8 8 8
14 14 13 8 5 3 4 3 2 4 3 2 4 2 2 3 3 3 4 3 3 3 3 3 4 4 5 6 7 8 8 6 5 6 6 4 4 4 5 3 4 7 8 10 9 8 7 8 8 8 8 10 8 7
5 6 5 5 4 3 3 1 3 2 1 2 1 3 2 2 2 3 3 4 4 3 2 4 4 5 5 7 7 5 8 6 5 4 2 2 3 5 5 5 7 7 7 7 8 9 9 8 7 7 10 10 8 9
4 4 3 3 2 2 2 1 3 2 3 2 1 3 2 2 1 1 2 2 3 3 3 4 5 7 7 6 5 5 1 4 4 4 5 4 5 6 7 6 8 9 8 8 7 9 9 8 9 10 11 10 10 9
3 3 3 2 2 2 1 2 2 2 2 2 2 2 1 1 2 3 2 1 3 3 2 4 7 7 6 5 3 6 5 5 4 5 6 6 7 7 7 6 8 10 9 9 9 10 9 9 9 10 9 10 10 10
3 2 2 0 1 1 2 1 1 1 1 1 1 1 1 2 3 1 2 3 3 5 1 1 1 4 4 6 5 5 5 6 7 7 6 8 9 7 8 9 10 9 10 8 8 9 9 7 8 11 12 11 10 10
2 1 1 2 1 2 2 1 1 1 1 1 1 1 1 1 2 2 2 3 4 4 5 4 6 6 6 6 6 7 7 5 8 8 6 8 10 11 9 7 8 9 8 9 10 12 10 7 8 8 6 10 11 12
1 2 1 1 1 1 1 2 2 2 1 1 1 1 1 1 3 2 3 3 3 3 5 5 5 6 7 6 7 6 4 3 10 9 5 4 4 10 12 11 9 8 6 8 8 10 10 10 10 12 11 11 7 9
2 2 2 2 0 1 2 2 2 2 1 2 2 1 1 3 3 3 2 3 3 3 4 5 5 6 7 8 6 3 7 8 9 9 8 7 7 9 9 9 10 8 8 9 10 10 11 10 10 9 9 7 7 7
1 2 1 2 2 2 2 2 0 1 1 4 2 2 3 2 1 2 2 3 3 3 3 2 4 6 4 3 4 7 8 9 10 9 9 9 9 8 9 9 9 12 9 8 7 8 8 8 7 7 7 7 6 6
1 2 2 2 3 2 2 2 1 3 5 3 4 4 3 1 2 1 1 2 3 4 7 8 9 8 6 4 4 5 4 4 7 10 10 8 8 7 6 6 6 6 7 7 14 11 9 6 6 6 6 6 5 5
1 3 2 0 3 4 5 6 7 6 5 6 6 8 8 7 5 4 6 5 5 7 7 6 6 6 7 7 6 6 3 4 5 6 7 8 8 6 5 5 5 5 4 5 6 7 6 8 7 5 4 4 4 4
2 4 10 10 9 8 7 6 6 7 9 10 10 9 9 7 6 3 3 3 4 4 6 6 6 5 6 6 7 8 7 6 8 8 6 6 6 5 4 3 2 2 2 1 2 2 4 3 3 3 4 4 4 0
6 8 8 10 7 5 5 7 9 9 10 9 10 8 9 8 9 5 3 4 5 6 3 5 6 5 5 5 6 7 8 6 5 4 4 5 5 4 4 4 4 3 3 3 3 4 3 2 3 3 4 3 2 2
8 7 8 9 9 9 7 7 8 7 6 6 6 5 5 6 8 4 3 1 3 6 6 6 6 6 6 6 7 6 7 8 9 9 9 11 11 9 3 4 4 3 3 3 3 4 4 3 3 2 2 2 2 2
Wind_Direction
258 279 268 276 284 301 321 327 333 332 345 347 353 356 356 1 3 331 41 5 327 303 293 268 267 251 194 242 252 82 218 192 239 239 239 223 256 176 244 258 213 207 205 214 233 237 237 83 163 241 19 343 357 354
254 259 249 269 273 270 298 315 321 321 333 346 353 348 348 355 348 330 307 22 325 265 344 314 289 284 279 349 319 185 355 28 5 264 240 311 215 215 244 218 175 239 296 293 265 225 67 3 351 15 318 312 308 327
242 251 257 268 296 234 271 296 307 315 324 342 346 339 338 342 342 339 319 350 252 270 234 237 205 162 232 238 270 284 131 356 158 342 341 303 276 308 229 234 279 182 259 255 274 137 79 18 17 18 4 328 310 298
243 230 238 247 252 261 276 276 295 310 322 335 338 337 332 336 330 322 305 343 277 294 281 107 180 253 297 219 223 232 322 301 278 267 271 277 264 15 265 357 271 26 169 265 255 76 314 81 40 22 0 5 9 82
224 225 241 239 253 267 280 265 283 299 308 325 327 330 327 328 322 293 247 244 267 307 335 360 213 110 185 181 198 210 227 255 297 247 241 248 322 266 203 287 244 32 18 273 9 30 334 45 4 358 11 36 62 97
225 221 229 242 261 250 273 264 277 293 301 309 316 319 322 323 320 266 200 160 214 268 276 246 93 167 159 190 192 185 199 219 255 298 251 244 84 272 258 249 71 83 56 12 354 337 335 326 1 360 351 52 100 114
229 223 230 238 238 250 257 269 272 291 299 302 306 309 309 311 294 298 5 27 306 251 264 248 165 136 170 159 160 173 184 206 246 245 242 269 199 230 265 256 131 324 314 354 333 330 170 18 1 21 66 107 138 116
226 228 230 231 233 240 251 267 274 290 299 303 305 298 293 285 267 240 99 180 238 269 249 278 148 182 196 188 162 180 183 207 204 258 226 250 208 231 253 255 283 313 307 285 0 338 298 335 296 101 169 155 145 127
219 225 223 227 224 229 246 265 280 293 303 307 311 252 173 225 185 30 121 171 244 297 283 256 266 113 184 154 147 180 234 227 148 239 234 235 229 225 254 242 236 300 336 306 298 304 283 272 338 0 262 190 134 140
214 218 215 215 213 220 239 262 284 301 302 298 251 215 184 75 355 186 186 229 220 179 244 267 335 187 266 189 169 193 195 266 254 191 138 236 243 242 185 238 267 285 298 307 289 277 255 182 184 327 308 239 170 168
203 207 208 204 207 211 229 259 298 310 264 211 220 75 58 62 219 213 248 238 137 229 202 222 296 320 120 280 343 251 295 214 256 143 247 219 233 173 171 254 269 284 281 284 284 281 274 264 264 243 199 287 239 169
193 197 197 198 200 199 214 242 294 268 22 7 346 231 216 215 220 238 231 222 233 228 167 229 136 283 98 292 263 193 257 243 256 129 246 235 79 85 257 311 313 295 290 283 280 282 279 276 270 270 261 235 174 153
184 185 185 190 185 187 196 206 270 323 222 188 219 211 213 166 258 228 187 193 193 138 27 317 187 226 175 232 251 222 228 234 23 224 226 52 355 334 331 319 317 314 305 302 293 280 274 275 271 260 255 231 192 172
174 172 173 176 174 181 187 197 243 229 249 234 193 228 237 187 231 192 133 70 208 304 280 337 264 272 166 225 250 248 221 253 244 232 105 37 348 330 321 314 306 306 305 299 304 290 283 281 284 267 232 214 197 182
160 161 164 167 173 177 182 195 246 237 262 239 230 230 204 296 113 25 37 191 102 301 283 239 225 272 222 273 228 281 237 249 298 63 124 277 307 302 300 303 306 304 302 305 302 300 294 293 282 228 194 190 192 175
149 144 171 153 171 171 176 191 214 235 229 243 237 263 199 211 160 134 164 151 251 305 228 233 260 254 243 292 260 235 250 271 84 235 273 272 281 298 287 285 287 285 279 283 275 280 278 260 207 124 106 118 133 135
172 144 148 160 163 163 187 236 200 213 256 236 199 209 303 252 305 138 70 42 355 273 351 296 238 227 324 238 246 244 332 15 325 309 309 321 306 289 282 274 278 278 274 274 277 269 106 111 131 124 112 108 105 113
105 133 148 149 164 166 173 227 233 226 230 220 254 59 272 298 173 142 66 22 312 338 279 313 328 235 233 260 280 24 309 339 333 333 329 307 298 288 272 264 265 254 253 168 132 118 114 106 100 103 102 100 94 87
122 137 155 165 217 241 186 174 248 241 191 76 212 90 304 273 254 317 289 5 323 349 297 263 252 256 237 270 323 333 328 332 323 311 305 300 302 12 74 93 97 92 91 92 94 82 86 93 97 94 96 92 92 101
99 129 155 181 244 234 191 155 240 269 219 108 205 194 306 319 342 305 4 20 330 276 210 230 239 308 337 351 335 303 307 304 289 299 307 349 9 30 56 58 80 91 85 85 80 77 93 91 82 81 92 86 80 87
186 123 166 225 200 262 302 202 195 341 333 250 360 292 287 305 302 310 331 355 234 218 262 296 300 302 314 305 313 302 283 274 263 258 324 7 25 50 52 59 80 82 82 87 84 83 77 82 90 93 88 84 87 81
92 175 221 179 246 193 243 59 334 39 263 15 317 17 323 320 324 12 320 249 267 309 298 291 290 322 313 297 295 279 32 66 57 73 53 44 61 64 57 59 82 82 75 67 76 82 75 74 82 87 94 93 85 86
178 216 211 213 226 113 180 234 244 355 267 34 303 285 250 296 347 320 260 279 269 256 263 275 276 262 251 278 84 63 49 75 71 70 74 72 63 63 68 71 89 91 87 79 85 86 83 80 86 98 106 112 115 115
189 313 315 147 209 181 168 94 47 317 302 235 227 270 338 341 339 5 297 269 260 287 230 172 94 87 83 71 66 57 51 76 78 70 68 82 74 61 68 69 70 79 90 99 99 93 91 102 125 111 112 123 115 104
228 9 200 275 245 190 135 207 215 236 228 175 160 318 43 2 10 16 326 299 318 337 57 59 63 62 76 76 73 62 38 82 85 74 49 79 102 104 87 69 82 112 133 125 126 120 120 108 95 110 118 98 98 103
172 161 273 146 148 233 187 206 217 220 194 132 83 73 290 353 41 5 308 311 322 333 33 51 73 72 60 62 79 63 36 99 90 70 48 78 93 100 101 93 83 69 67 86 95 98 101 103 105 99 100 95 87 108
184 170 92 21 357 156 224 239 256 265 123 88 81 7 360 55 15 305 314 348 343 12 40 40 50 70 91 87 71 66 86 78 85 88 86 80 67 68 80 88 87 87 90 95 99 102 106 110 112 111 110 105 93 92
152 189 190 184 207 220 268 205 181 30 95 101 106 28 64 67 315 309 326 350 3 72 74 87 74 76 77 86 100 96 101 106 110 110 97 86 81 80 80 78 69 40 64 59 94 108 105 103 103 101 97 91 83 69
207 177 229 220 185 183 19 60 19 59 75 104 105 96 95 168 190 165 120 177 198 186 118 111 117 128 127 120 121 150 140 101 103 112 109 107 105 95 101 109 114 102 107 101 50 45 55 65 80 88 82 87 96 106
126 182 269 276 101 82 94 102 105 94 79 77 101 118 118 114 107 149 161 161 109 95 100 112 128 120 112 109 107 104 81 87 102 100 98 97 100 102 104 105 99 99 102 108 115 111 121 123 133 133 136 130 124 123
152 205 113 110 99 101 97 99 103 97 97 98 103 103 107 121 119 87 61 67 110 126 128 120 118 120 119 113 115 118 110 94 80 61 57 90 89 78 71 76 98 94 98 127 160 155 148 159 114 120 109 91 95 56
125 124 111 106 99 111 120 98 102 107 106 108 108 110 110 104 98 101 110 165 155 119 81 133 129 112 88 96 89 72 58 99 111 97 80 72 75 68 83 81 77 69 76 88 100 116 119 119 117 107 122 124 113 107
103 112 111 115 113 109 111 112 108 108 109 99 90 93 94 99 103 111 121 9 69 122 118 99 106 100 90 83 94 99 78 78 72 56 58 49 34 5 11 62 61 59 72 72 89 110 117 118 121 110 112 129 138 139